sat.trackr.live / text

‹ back to catalog

EUTELSAT HOTBIRD 13C

NORAD 33459 · 2008-065A

PAYLOAD ACTIVE UNKNOWN

§ Identity

Operator
Country
EUTE
Launch date
2008-12-20
Launch site
FRGUI
Launch vehicle
Mass (kg)
RCS (m²)
6.32

Purposes: comms

External: N2YO · Heavens-Above · Gunter

§ Orbital elements

Epoch: 2026-09-15T22:03:57.428352Z

Period
1,436.12 min
Inclination
3.1774°
Eccentricity
0.0003591
Mean motion
1.00270062 rev/d
Perigee alt
35,771.9 km
Apogee alt
35,802.2 km
Semi-major
42,165.2 km
B*
0.0000e+0
RAAN
78.0420°
Arg perigee
102.6034°
Mean anomaly
94.9189°
Rev number
4,825

§ Raw data

EUTELSAT HOTBIRD 13C1 33459U 08065A   26258.91941468 -.00000288  00000+0  00000+0 0  99952 33459   3.1774  78.0420 0003591 102.6034  94.9189  1.00270062 48250

JSON: /api/v1/satellites/33459 · /tle

For live sub-satellite position, see the globe view (requires WebGL).

§ Visibility from observer

Set your observer location to see the next 7 days of passes ≥ 10°. The values pass through the URL so the page stays shareable.

No JS? Fill the form by hand. The geolocation button needs JavaScript.